Zurück zum Katalog

STARLINK-11665

AktivKommunikationVLEO
NORAD 63549·PAYLOAD·🇺🇸 United States

Gestartet Apr 13, 2025 von Cape Canaveral Space Force Station

Loading…

Nächste Überflüge (nächste 24 Stunden)

TLE

AktuellSource: CelesTrak SupGP

Epoche: Sep 14, 2026, 21:01 UTC

1 63549C 25075B   26257.87618056 -.00025034  00000+0 -19450-3 0  2573
2 63549  43.0006  93.3881 0001587 267.2645  86.1345 15.70843539    10

Verfolge STARLINK-11665 in Echtzeit mit AllMySat

Download on the App Store